Location: Charnoz
(45.8708°N, 5.2222°E)
Time: 02:48:02
(UTC+00:00)

Daily predictions for brighter satellites

Satellite Brightness Start Highest point End
(mag) Time Altitude Azimuth Time Altitude Azimuth Time Altitude Azimuth
SL-16 R/B 4.2 01:04:18 27° N 01:04:18 27° N 01:06:54 10° N
ADEOS II 4.4 01:02:30 10° NE 01:04:24 18° ENE 01:04:24 18° ENE
Cosmos 1980 Rocket 4.1 01:20:38 24° ENE 01:20:38 24° ENE 01:23:21 10° NE
Cosmos 2263 Rocket 4.2 01:16:38 10° N 01:21:10 24° NE 01:25:42 10° E
USA 234 4.4 01:20:19 10° ENE 01:26:13 38° NNE 01:28:11 31° NNW
Resurs 1-4 Rocket 3.9 01:49:41 10° N 01:51:58 26° N 01:51:58 26° N
CZ-2D R/B 3.8 01:52:54 10° N 01:55:14 26° N 01:55:14 26° N
Nadezhda 3 Rocket 4.4 02:01:33 56° NNE 02:01:33 56° NNE 02:06:21 10° N
SJ 16-02 3.9 02:01:43 10° N 02:03:00 17° N 02:03:00 17° N
Gbstr 26 Del rocket 4.5 02:06:54 65° NW 02:08:11 78° NNE 02:15:51 10° ESE
Lacrosse 5 3.2 02:13:50 35° NNE 02:13:50 35° NNE 02:17:05 10° NE
ATLAS 5 CENTAUR R/B 4.2 02:16:15 14° NNW 02:16:15 14° NNW 02:18:29 10° NNE
Cosmos 2278 4.1 02:23:24 57° N 02:23:24 57° N 02:27:59 10° NNE
ARIANE 5 R/B 3.1 02:21:07 10° NNE 02:25:30 53° ENE 02:25:30 53° ENE
SL-4 R/B 4.1 02:27:59 27° ESE 02:27:59 27° ESE 02:30:43 10° ENE
USA 267 3.3 02:26:55 10° NE 02:33:26 65° SE 02:34:08 61° S
NOSS 3-3 (A) 3.9 02:34:42 74° SE 02:34:51 74° SE 02:41:26 10° NE
NOSS 3-3 (C) 3.9 02:34:50 74° SE 02:34:57 74° SE 02:41:31 10° NE
IRS-1D 4.5 02:31:55 10° N 02:35:34 39° NNW 02:35:34 39° NNW
ADEOS II 2.9 02:41:38 10° N 02:45:19 39° NNW 02:45:19 39° NNW
Cosmos 990 Rocket 4.4 02:44:08 10° NNW 02:49:18 60° ENE 02:54:27 10° SE
ATLAS 2AS CENTAUR R/B 3.8 02:42:15 10° NNW 02:49:31 46° NE 02:56:15 10° ESE
IDEFIX/ARIANE 42P 2.6 02:45:20 10° NNE 02:50:39 75° ESE 02:51:13 67° SSE
Cosmos 921 Rocket 3.8 02:52:55 46° NNE 02:52:55 46° NNE 02:55:55 10° NNE
Cosmos 2360 Rocket 4.2 02:47:59 10° SSE 02:52:22 24° ESE 02:56:45 10° NE
BREEZE-M DEB (TANK) 4.4 02:51:05 47° SSW 02:53:24 66° SSE 03:17:32 10° ENE
Cosmos 1697 Rocket 3.9 02:56:36 29° NW 02:56:36 29° NW 03:00:53 10° N
Cosmos 468 Rocket 4.4 02:57:16 47° SSE 02:58:31 61° ESE 03:03:43 10° NNE
ERS-1 4.5 02:55:35 10° N 03:00:37 70° WNW 03:00:37 70° WNW
Cosmos 1980 Rocket 2.7 03:02:25 44° NW 03:02:25 44° NW 03:07:40 10° NNE
Cosmos 2263 Rocket 2.0 02:59:58 10° NNW 03:05:36 68° WSW 03:11:14 10° SSE
USA 307 4.2 03:06:10 31° NNW 03:06:17 31° NNW 03:10:06 10° NE
Meteor 1-11 Rocket 4.2 03:01:10 10° N 03:06:53 62° ENE 03:12:27 10° SSE
USA 234 3.4 03:02:12 10° ESE 03:08:42 74° NNE 03:15:14 10° NW
USA 308 4.2 03:09:21 30° NNW 03:09:37 31° NNW 03:13:26 10° NE
Cosmos 1844 Rocket 4.3 03:04:57 10° NNW 03:10:04 34° NE 03:15:11 10° ESE
Cosmos 44 4.0 03:10:35 36° NNW 03:10:35 36° NNW 03:14:31 10° NNE
Cosmos 2322 Rocket 2.6 03:08:24 32° S 03:10:55 60° ESE 03:16:32 10° NNE
Meteor 1-4 Rocket 3.2 03:13:45 50° NNE 03:13:45 50° NNE 03:16:30 10° NNE
Meteor 1-27 Rocket 4.4 03:10:07 10° S 03:15:51 57° E 03:21:37 10° NNE
Cosmos 1707 Rocket 4.1 03:14:39 28° SSE 03:16:43 55° E 03:20:59 10° NNE
Cosmos 1666 3.0 03:13:01 10° N 03:16:50 63° E 03:18:11 36° SSE
CZ-2D R/B 3.7 03:13:50 10° N 03:17:38 57° NW 03:17:38 57° NW
Cosmos 1812 3.2 03:21:36 50° NNW 03:21:36 50° NNW 03:24:38 10° N
Cosmos 1934 Rocket 4.3 03:15:38 10° NNW 03:20:55 40° W 03:20:55 40° W
SL-16 R/B 2.1 03:20:04 40° SSW 03:22:13 87° ESE 03:27:56 10° NNE
CZ-3B R/B 3.3 03:21:33 28° NW 03:22:51 36° N 03:31:46 10° ENE
USA 276 3.1 03:25:21 45° NNE 03:25:21 45° NNE 03:28:19 10° E
COSMOS 2441 4.3 03:20:54 10° NNE 03:25:51 87° WNW 03:27:54 36° SSW
Cosmos 1536 3.2 03:25:06 10° N 03:29:10 63° E 03:33:11 10° SSE
Cosmos 1238 Rocket 4.4 03:23:56 10° NNW 03:29:48 37° W 03:30:02 37° W
ATLAS CENTAUR R/B 4.2 03:20:20 10° WNW 03:31:08 42° N 03:35:31 10° E
Cosmos 1733 Rocket 3.9 03:27:19 10° N 03:31:35 51° ENE 03:35:47 10° SSE
Spot 4 Rocket 4.1 03:27:59 10° N 03:33:01 53° WNW 03:34:17 42° WSW
CZ-2C R/B 3.0 03:28:36 10° NNE 03:33:43 61° E 03:38:51 10° S
Cosmos 1898 Rocket 3.4 03:28:56 10° NNW 03:34:09 64° WSW 03:39:23 10° S
ASTEX 1 4.1 03:34:09 10° NNW 03:38:37 34° WNW 03:38:38 34° WNW
ALOS 4.4 03:34:46 10° NE 03:38:43 27° E 03:42:40 10° SSE
CZ-4C R/B 4.2 03:33:13 10° NNW 03:39:42 40° NE 03:47:10 10° ESE
Cosmos 1869 Rocket 4.1 03:37:24 10° NNW 03:40:47 37° WNW 03:40:47 37° WNW
Cosmos 858 Rocket 4.3 03:36:38 10° NNW 03:41:50 76° WSW 03:47:00 10° SSE
MSX 3.9 03:36:52 10° N 03:42:34 61° WNW 03:45:54 25° SW
Cosmos 967 Rocket 4.5 03:40:08 25° SW 03:44:06 88° WNW 03:50:33 10° NE
IRIDIUM 104 4.4 03:40:43 10° NNW 03:45:49 55° W 03:50:24 13° SSW
Landsat 5 3.6 03:42:21 10° S 03:46:48 57° W 03:51:12 10° NNW
PSLV R/B 3.4 03:43:19 10° NNE 03:47:32 85° ESE 03:51:00 15° SSW
Cosmos 2228 Rocket 4.2 03:48:01 27° WNW 03:48:01 27° WNW 03:51:26 10° NNW
Cosmos 1862 Rocket 4.0 03:47:04 10° S 03:51:23 63° E 03:55:41 10° NNE
CZ-4C R/B 3.8 03:55:01 34° WNW 03:55:01 34° WNW 03:57:37 10° NNW
Cosmos 1937 Rocket 3.4 03:50:10 10° NNW 03:55:13 57° WSW 04:00:14 10° S
Lacrosse 5 3.5 03:53:01 15° NW 03:56:05 24° N 04:00:13 10° NE
H-2A R/B 2.3 03:53:09 10° S 03:57:22 46° W 04:01:42 10° NNW
X-37B 2.2 03:59:50 21° S 03:59:50 21° S 04:01:49 10° SSE
ERBS 3.8 03:58:34 22° NW 03:59:19 24° NNW 04:02:07 10° NNE
Cosmos 2208 Rocket 4.1 03:54:24 10° SSW 03:59:38 76° ESE 04:04:50 10° NNE
Cosmos 841 Rocket 3.4 03:56:30 13° SSW 04:01:14 85° WNW 04:06:32 10° NNE
FALCON 9 DEB 3.4 04:01:05 36° W 04:02:09 53° NNW 04:05:32 10° NE
ERS-2 2.0 03:58:56 10° S 04:02:34 64° WSW 04:06:13 10° NNW
USA 32 4.1 03:57:37 10° NNW 04:02:45 55° W 04:07:51 10° SSW
ATLAS 5 CENTAUR R/B 4.5 04:01:14 10° N 04:02:46 11° N 04:04:21 10° NNE
Cosmos 2016 Rocket 4.2 03:57:00 10° N 04:03:08 72° E 04:09:12 10° SSE
Cosmos 1743 3.1 04:00:54 10° N 04:04:41 63° E 04:08:27 10° SSE
ARIANE 5 R/B 3.8 04:01:05 10° NNW 04:04:49 21° WNW 04:05:50 20° WNW
Cosmos 2061 Rocket 4.3 03:58:50 10° N 04:05:19 75° E 04:11:43 10° SSE
Cosmos 1814 Rocket 4.0 04:00:14 10° SSW 04:05:27 84° ESE 04:10:46 10° NNE
SL-4 R/B 2.4 04:03:35 27° WSW 04:06:01 70° NNW 04:10:49 10° ENE
Cosmos 1000 Rocket 4.4 04:00:41 10° S 04:06:52 83° W 04:13:03 10° N
Cosmos 1763 Rocket 4.0 04:04:26 23° WSW 04:07:17 42° WNW 04:12:20 10° N
CZ-2C R/B 3.8 04:04:13 10° N 04:07:26 27° WNW 04:08:05 25° W
Cosmos 2333 Rocket 3.7 04:03:04 10° S 04:08:20 38° ESE 04:13:38 10° NE
Cosmos 2322 4.5 04:08:34 10° S 04:14:03 54° ESE 04:19:34 10° NE
Cosmos 1544 3.8 04:11:25 10° N 04:14:58 54° E 04:18:28 10° SSE
USA 267 3.7 04:10:03 10° NE 04:16:21 52° NNW 04:21:29 16° W
NOSS 3-4 (A) 3.9 04:09:58 10° NW 04:16:55 61° WSW 04:24:34 10° SSE
NOSS 3-4 (C) 3.9 04:10:05 10° NW 04:17:02 61° WSW 04:24:41 10° SSE
CZ-4B R/B 1.2 04:19:11 10° S 04:22:20 66° WSW 04:25:37 10° NNW
Cosmos 1725 Rocket 4.0 04:18:50 10° N 04:25:04 87° E 04:31:15 10° S
ADEOS 3.6 04:19:53 10° NNE 04:25:08 88° WNW 04:30:22 10° SSW
Cosmos 540 Rocket 3.6 04:20:40 10° SW 04:25:43 54° WNW 04:30:49 10° NNE
ADEOS Rocket 3.1 04:20:07 10° S 04:26:40 57° W 04:32:37 10° NNW
Cosmos 1975 3.8 04:23:55 10° N 04:27:52 52° ENE 04:31:45 10° SSE
COSMO-SKYMED 1 3.5 04:25:11 10° SSE 04:29:23 52° ENE 04:33:38 10° N
IDEFIX/ARIANE 42P 4.1 04:26:11 10° NNW 04:29:37 18° WNW 04:32:01 14° W
PAYLOAD A 4.4 04:26:12 10° N 04:30:29 36° WNW 04:34:47 10° SW
Cosmos 2333 4.5 04:26:22 10° SSW 04:32:07 76° ESE 04:37:55 10° NNE
Meteor 1-18 Rocket 4.5 04:27:28 10° S 04:32:59 73° E 04:38:34 10° NNE
Cosmos 2100 Rocket 4.3 04:27:11 10° NNW 04:33:12 45° W 04:39:10 10° SSW
Cosmos 2360 Rocket 2.3 04:30:21 10° SW 04:35:56 58° WNW 04:41:32 10° NNE
FENGYUN 3A 3.7 04:30:55 10° NNE 04:36:20 89° WNW 04:41:45 10° SSW
Cosmos 1570 Rocket 4.4 04:32:20 10° SW 04:37:27 45° WNW 04:42:36 10° N
deb Chang Zheng 4 3.5 04:33:29 10° N 04:37:45 64° WNW 04:41:58 10° SSW
SAR-Lupe-4 3.7 04:36:00 10° S 04:39:29 52° WSW 04:43:01 10° NNW
Cosmos 1459 Rocket 4.3 04:34:29 10° NNW 04:40:08 42° W 04:45:44 10° SSW
ATLAS 2AS CENTAUR R/B 3.0 04:33:30 10° NW 04:40:38 51° WSW 04:47:11 10° SSE
Cosmos 1802 Rocket 4.2 04:36:16 10° NNW 04:42:14 50° W 04:48:14 10° SSW
Cosmos 1484 Rocket 2.8 04:39:00 10° N 04:42:58 65° WNW 04:46:56 10° SSW
Cosmos 1782 Rocket 4.2 04:39:50 10° N 04:44:19 64° E 04:48:43 10° SSE
Cosmos 1908 Rocket 3.5 04:41:15 10° NNW 04:45:42 70° W 04:50:08 10° S
Cosmos 44 Rocket 3.8 04:42:20 10° WSW 04:46:50 41° NW 04:51:28 10° NNE
USA 307 4.5 04:43:28 10° NW 04:47:12 29° N 04:50:57 10° ENE
Cosmos 1703 Rocket 3.6 04:43:10 10° S 04:47:29 87° ESE 04:51:53 10° N
Cosmos 1980 Rocket 4.3 04:46:30 10° NW 04:47:50 11° NNW 04:49:09 10° NNW
SJ-12 4.2 04:45:29 10° NNE 04:49:38 74° ESE 04:53:45 10° S
Okean 1 3.5 04:46:26 10° SSW 04:50:24 53° WNW 04:54:23 10° N
USA 308 4.4 04:46:48 10° NW 04:50:34 29° N 04:54:20 10° ENE
USA 234 3.8 04:46:02 10° SSE 04:52:01 38° SW 04:58:03 10° WNW
Okean 1-7 3.0 04:48:28 10° S 04:52:44 90° NNW 04:57:00 10° N
Cosmos 1515 3.7 04:49:51 10° SSW 04:53:36 62° W 04:57:22 10° N
Cosmos 1844 Rocket 3.1 04:48:46 10° NW 04:54:03 42° WSW 04:59:21 10° S
Cosmos 2123 Rocket 4.1 04:48:20 10° SSW 04:54:29 60° WNW 05:00:45 10° N
Cosmos 2322 Rocket 3.3 04:50:39 10° WSW 04:55:23 26° NW 05:00:10 10° N
Meteor 1-31 Rocket 2.8 04:51:44 10° N 04:55:30 57° WNW 04:59:18 10° SSW
Cosmos 2278 Rocket 3.4 04:50:58 10° NNW 04:56:26 46° ENE 05:01:51 10° SE
Cosmos 1844 3.9 04:54:20 10° NW 04:59:38 46° WSW 05:04:55 10° S
